Location: Artiguedieu
(43.5000°N, 0.5454°E)
Time: 09:20:13
(UTC+00:00)

Vanguard 1 Rocket - Pass Details

Date: 04 August 2021
Orbit: 650 x 4226 km, 34.3° (Epoch: 24 September)

Event Time Altitude Azimuth Distance (km) Brightness Sun altitude
Rises 05:29:31 0° 188° (S) 8,360 12.0 5.7°
Reaches altitude 10° 05:38:29 10° 173° (S) 7,420 12.0 7.3°
Maximum altitude 05:53:08 19° 138° (SE) 6,251 12.1 9.8°
Drops below altitude 10° 06:05:19 10° 102° (ESE) 6,186 13.1 12.0°
Sets 06:11:24 0° 86° (E) 6,621 13.7 13.0°
